Year,Month,Day,Hour,Minute,Value (Times are PST for temperature in C)
2017,05,20,00,00,12.30
2017,05,20,00,01,12.30
2017,05,20,00,02,12.30
2017,05,20,00,03,12.30
2017,05,20,00,04,12.30
2017,05,20,00,05,12.30
2017,05,20,00,06,12.30
2017,05,20,00,07,12.30
2017,05,20,00,08,12.30
2017,05,20,00,09,12.30
2017,05,20,00,10,12.20
2017,05,20,00,11,12.20
2017,05,20,00,12,12.20
2017,05,20,00,13,12.20
2017,05,20,00,14,12.10
2017,05,20,00,15,12.10
2017,05,20,00,16,12.10
2017,05,20,00,17,12.00
2017,05,20,00,18,12.00
2017,05,20,00,19,12.00
2017,05,20,00,20,11.90
2017,05,20,00,21,11.90
2017,05,20,00,22,11.90
2017,05,20,00,23,11.90
2017,05,20,00,24,11.80
2017,05,20,00,25,11.80
2017,05,20,00,26,11.80
2017,05,20,00,27,11.80
2017,05,20,00,28,11.80
2017,05,20,00,29,11.80
2017,05,20,00,30,11.70
2017,05,20,00,31,11.70
2017,05,20,00,32,11.70
2017,05,20,00,33,11.70
2017,05,20,00,34,11.70
2017,05,20,00,35,11.60
2017,05,20,00,36,11.60
2017,05,20,00,37,11.60
2017,05,20,00,38,11.60
2017,05,20,00,39,11.60
2017,05,20,00,40,11.60
2017,05,20,00,41,11.60
2017,05,20,00,42,11.60
2017,05,20,00,43,11.60
2017,05,20,00,44,11.50
2017,05,20,00,45,11.40
2017,05,20,00,46,11.40
2017,05,20,00,47,11.40
2017,05,20,00,48,11.40
2017,05,20,00,49,11.40
2017,05,20,00,50,11.40
2017,05,20,00,51,11.40
2017,05,20,00,52,11.30
2017,05,20,00,53,11.30
2017,05,20,00,54,11.30
2017,05,20,00,55,11.20
2017,05,20,00,56,11.20
2017,05,20,00,57,11.20
2017,05,20,00,58,11.20
2017,05,20,00,59,11.20
2017,05,20,01,00,11.20
2017,05,20,01,01,11.20
2017,05,20,01,02,11.20
2017,05,20,01,03,11.10
2017,05,20,01,04,11.10
2017,05,20,01,05,11.10
2017,05,20,01,06,11.10
2017,05,20,01,07,11.10
2017,05,20,01,08,11.10
2017,05,20,01,09,11.10
2017,05,20,01,10,11.10
2017,05,20,01,11,11.10
2017,05,20,01,12,11.10
2017,05,20,01,13,11.10
2017,05,20,01,14,11.10
2017,05,20,01,15,11.10
2017,05,20,01,16,11.10
2017,05,20,01,17,11.10
2017,05,20,01,18,11.10
2017,05,20,01,19,11.00
2017,05,20,01,20,10.90
2017,05,20,01,21,10.90
2017,05,20,01,22,10.90
2017,05,20,01,23,10.90
2017,05,20,01,24,10.90
2017,05,20,01,25,10.90
2017,05,20,01,26,10.90
2017,05,20,01,27,10.90
2017,05,20,01,28,10.90
2017,05,20,01,29,10.90
2017,05,20,01,30,10.90
2017,05,20,01,31,10.90
2017,05,20,01,32,10.90
2017,05,20,01,33,10.90
2017,05,20,01,34,10.90
2017,05,20,01,35,10.90
2017,05,20,01,36,10.90
2017,05,20,01,37,10.90
2017,05,20,01,38,10.90
2017,05,20,01,39,10.90
2017,05,20,01,40,10.90
2017,05,20,01,41,10.80
2017,05,20,01,42,10.80
2017,05,20,01,43,10.80
2017,05,20,01,44,10.80
2017,05,20,01,45,10.80
2017,05,20,01,46,10.80
2017,05,20,01,47,10.70
2017,05,20,01,48,10.70
2017,05,20,01,49,10.70
2017,05,20,01,50,10.70
2017,05,20,01,51,10.70
2017,05,20,01,52,10.70
2017,05,20,01,53,10.70
2017,05,20,01,54,10.70
2017,05,20,01,55,10.70
2017,05,20,01,56,10.70
2017,05,20,01,57,10.70
2017,05,20,01,58,10.70
2017,05,20,01,59,10.70
2017,05,20,02,00,10.70
2017,05,20,02,01,10.70
2017,05,20,02,02,10.70
2017,05,20,02,03,10.70
2017,05,20,02,04,10.70
2017,05,20,02,05,10.60
2017,05,20,02,06,10.60
2017,05,20,02,07,10.60
2017,05,20,02,08,10.60
2017,05,20,02,09,10.50
2017,05,20,02,10,10.40
2017,05,20,02,11,10.40
2017,05,20,02,12,10.40
2017,05,20,02,13,10.40
2017,05,20,02,14,10.40
2017,05,20,02,15,10.40
2017,05,20,02,16,10.40
2017,05,20,02,17,10.40
2017,05,20,02,18,10.40
2017,05,20,02,19,10.30
2017,05,20,02,20,10.30
2017,05,20,02,21,10.30
2017,05,20,02,22,10.30
2017,05,20,02,23,10.30
2017,05,20,02,24,10.30
2017,05,20,02,25,10.20
2017,05,20,02,26,10.20
2017,05,20,02,27,10.20
2017,05,20,02,28,10.20
2017,05,20,02,29,10.20
2017,05,20,02,30,10.20
2017,05,20,02,31,10.10
2017,05,20,02,32,10.10
2017,05,20,02,33,10.10
2017,05,20,02,34,10.10
2017,05,20,02,35,10.10
2017,05,20,02,36,10.10
2017,05,20,02,37,10.10
2017,05,20,02,38,10.10
2017,05,20,02,39,10.00
2017,05,20,02,40,9.90
2017,05,20,02,41,9.90
2017,05,20,02,42,9.90
2017,05,20,02,43,9.90
2017,05,20,02,44,9.90
2017,05,20,02,45,9.90
2017,05,20,02,46,9.90
2017,05,20,02,47,9.90
2017,05,20,02,48,9.90
2017,05,20,02,49,9.90
2017,05,20,02,50,9.90
2017,05,20,02,51,9.90
2017,05,20,02,52,9.90
2017,05,20,02,53,9.90
2017,05,20,02,54,9.90
2017,05,20,02,55,9.90
2017,05,20,02,56,9.90
2017,05,20,02,57,9.90
2017,05,20,02,58,9.90
2017,05,20,02,59,9.90
2017,05,20,03,00,9.90
2017,05,20,03,01,9.90
2017,05,20,03,02,9.90
2017,05,20,03,03,9.90
2017,05,20,03,04,9.80
2017,05,20,03,05,9.80
2017,05,20,03,06,9.80
2017,05,20,03,07,9.70
2017,05,20,03,08,9.70
2017,05,20,03,09,9.70
2017,05,20,03,10,9.70
2017,05,20,03,11,9.70
2017,05,20,03,12,9.70
2017,05,20,03,13,9.70
2017,05,20,03,14,9.70
2017,05,20,03,15,9.70
2017,05,20,03,16,9.70
2017,05,20,03,17,9.70
2017,05,20,03,18,9.70
2017,05,20,03,19,9.70
2017,05,20,03,20,9.70
2017,05,20,03,21,9.70
2017,05,20,03,22,9.70
2017,05,20,03,23,9.60
2017,05,20,03,24,9.60
2017,05,20,03,25,9.60
2017,05,20,03,26,9.60
2017,05,20,03,27,9.60
2017,05,20,03,28,9.50
2017,05,20,03,29,9.50
2017,05,20,03,30,9.50
2017,05,20,03,31,9.50
2017,05,20,03,32,9.50
2017,05,20,03,33,9.50
2017,05,20,03,34,9.50
2017,05,20,03,35,9.50
2017,05,20,03,36,9.50
2017,05,20,03,37,9.50
2017,05,20,03,38,9.50
2017,05,20,03,39,9.50
2017,05,20,03,40,9.50
2017,05,20,03,41,9.60
2017,05,20,03,42,9.60
2017,05,20,03,43,9.60
2017,05,20,03,44,9.50
2017,05,20,03,45,9.50
2017,05,20,03,46,9.50
2017,05,20,03,47,9.50
2017,05,20,03,48,9.50
2017,05,20,03,49,9.50
2017,05,20,03,50,9.50
2017,05,20,03,51,9.40
2017,05,20,03,52,9.40
2017,05,20,03,53,9.40
2017,05,20,03,54,9.30
2017,05,20,03,55,9.30
2017,05,20,03,56,9.30
2017,05,20,03,57,9.30
2017,05,20,03,58,9.30
2017,05,20,03,59,9.30
2017,05,20,04,00,9.30
2017,05,20,04,01,9.30
2017,05,20,04,02,9.30
2017,05,20,04,03,9.30
2017,05,20,04,04,9.30
2017,05,20,04,05,9.30
2017,05,20,04,06,9.30
2017,05,20,04,07,9.30
2017,05,20,04,08,9.30
2017,05,20,04,09,9.40
2017,05,20,04,10,9.40
2017,05,20,04,11,9.40
2017,05,20,04,12,9.40
2017,05,20,04,13,9.40
2017,05,20,04,14,9.40
2017,05,20,04,15,9.50
2017,05,20,04,16,9.50
2017,05,20,04,17,9.50
2017,05,20,04,18,9.50
2017,05,20,04,19,9.50
2017,05,20,04,20,9.50
2017,05,20,04,21,9.50
2017,05,20,04,22,9.50
2017,05,20,04,23,9.60
2017,05,20,04,24,9.60
2017,05,20,04,25,9.60
2017,05,20,04,26,9.70
2017,05,20,04,27,9.70
2017,05,20,04,28,9.70
2017,05,20,04,29,9.80
2017,05,20,04,30,9.80
2017,05,20,04,31,9.90
2017,05,20,04,32,9.90
2017,05,20,04,33,9.90
2017,05,20,04,34,9.90
2017,05,20,04,35,9.90
2017,05,20,04,36,9.90
2017,05,20,04,37,9.90
2017,05,20,04,38,9.90
2017,05,20,04,39,9.90
2017,05,20,04,40,9.90
2017,05,20,04,41,9.90
2017,05,20,04,42,9.90
2017,05,20,04,43,9.90
2017,05,20,04,44,10.00
2017,05,20,04,45,10.10
2017,05,20,04,46,10.10
2017,05,20,04,47,10.10
2017,05,20,04,48,10.10
2017,05,20,04,49,10.10
2017,05,20,04,50,10.10
2017,05,20,04,51,10.10
2017,05,20,04,52,10.20
2017,05,20,04,53,10.20
2017,05,20,04,54,10.30
2017,05,20,04,55,10.30
2017,05,20,04,56,10.30
2017,05,20,04,57,10.30
2017,05,20,04,58,10.30
2017,05,20,04,59,10.30
2017,05,20,05,00,10.30
2017,05,20,05,01,10.30
2017,05,20,05,02,10.20
2017,05,20,05,03,10.20
2017,05,20,05,04,10.20
2017,05,20,05,05,10.20
2017,05,20,05,06,10.20
2017,05,20,05,07,10.20
2017,05,20,05,08,10.20
2017,05,20,05,09,10.20
2017,05,20,05,10,10.20
2017,05,20,05,11,10.10
2017,05,20,05,12,10.10
2017,05,20,05,13,10.10
2017,05,20,05,14,10.10
2017,05,20,05,15,10.10
2017,05,20,05,16,10.10
2017,05,20,05,17,10.10
2017,05,20,05,18,10.10
2017,05,20,05,19,10.10
2017,05,20,05,20,10.00
2017,05,20,05,21,9.90
2017,05,20,05,22,9.90
2017,05,20,05,23,9.90
2017,05,20,05,24,9.90
2017,05,20,05,25,9.90
2017,05,20,05,26,9.90
2017,05,20,05,27,9.90
2017,05,20,05,28,9.90
2017,05,20,05,29,9.90
2017,05,20,05,30,9.90
2017,05,20,05,31,9.90
2017,05,20,05,32,9.90
2017,05,20,05,33,9.90
2017,05,20,05,34,9.90
2017,05,20,05,35,9.90
2017,05,20,05,36,9.90
2017,05,20,05,37,9.90
2017,05,20,05,38,9.90
2017,05,20,05,39,9.80
2017,05,20,05,40,9.80
2017,05,20,05,41,9.80
2017,05,20,05,42,9.80
2017,05,20,05,43,9.80
2017,05,20,05,44,9.80
2017,05,20,05,45,9.70
2017,05,20,05,46,9.70
2017,05,20,05,47,9.70
2017,05,20,05,48,9.70
2017,05,20,05,49,9.70
2017,05,20,05,50,9.70
2017,05,20,05,51,9.70
2017,05,20,05,52,9.60
2017,05,20,05,53,9.60
2017,05,20,05,54,9.60
2017,05,20,05,55,9.60
2017,05,20,05,56,9.60
2017,05,20,05,57,9.60
2017,05,20,05,58,9.60
2017,05,20,05,59,9.60
2017,05,20,06,00,9.60
2017,05,20,06,01,9.60
2017,05,20,06,02,9.50
2017,05,20,06,03,9.50
2017,05,20,06,04,9.50
2017,05,20,06,05,9.50
2017,05,20,06,06,9.50
2017,05,20,06,07,9.50
2017,05,20,06,08,9.50
2017,05,20,06,09,9.50
2017,05,20,06,10,9.50
2017,05,20,06,11,9.50
2017,05,20,06,12,9.50
2017,05,20,06,13,9.50
2017,05,20,06,14,9.50
2017,05,20,06,15,9.50
2017,05,20,06,16,9.50
2017,05,20,06,17,9.50
2017,05,20,06,18,9.50
2017,05,20,06,19,9.50
2017,05,20,06,20,9.60
2017,05,20,06,21,9.60
2017,05,20,06,22,9.60
2017,05,20,06,23,9.60
2017,05,20,06,24,9.60
2017,05,20,06,25,9.70
2017,05,20,06,26,9.70
2017,05,20,06,27,9.70
2017,05,20,06,28,9.70
2017,05,20,06,29,9.70
2017,05,20,06,30,9.80
2017,05,20,06,31,9.90
2017,05,20,06,32,9.90
2017,05,20,06,33,10.00
2017,05,20,06,34,10.10
2017,05,20,06,35,10.20
2017,05,20,06,36,10.20
2017,05,20,06,37,10.30
2017,05,20,06,38,10.40
2017,05,20,06,39,10.50
2017,05,20,06,40,10.60
2017,05,20,06,41,10.60
2017,05,20,06,42,10.70
2017,05,20,06,43,10.70
2017,05,20,06,44,10.70
2017,05,20,06,45,10.70
2017,05,20,06,46,10.80
2017,05,20,06,47,10.80
2017,05,20,06,48,10.80
2017,05,20,06,49,10.80
2017,05,20,06,50,10.90
2017,05,20,06,51,10.90
2017,05,20,06,52,10.90
2017,05,20,06,53,10.90
2017,05,20,06,54,11.10
2017,05,20,06,55,11.10
2017,05,20,06,56,11.20
2017,05,20,06,57,11.20
2017,05,20,06,58,11.30
2017,05,20,06,59,11.40
2017,05,20,07,00,11.40
2017,05,20,07,01,11.60
2017,05,20,07,02,11.60
2017,05,20,07,03,11.70
2017,05,20,07,04,11.80
2017,05,20,07,05,11.80
2017,05,20,07,06,11.90
2017,05,20,07,07,12.00
2017,05,20,07,08,12.10
2017,05,20,07,09,12.20
2017,05,20,07,10,12.20
2017,05,20,07,11,12.30
2017,05,20,07,12,12.30
2017,05,20,07,13,12.40
2017,05,20,07,14,12.50
2017,05,20,07,15,12.70
2017,05,20,07,16,12.80
2017,05,20,07,17,12.90
2017,05,20,07,18,13.10
2017,05,20,07,19,13.10
2017,05,20,07,20,13.20
2017,05,20,07,21,13.30
2017,05,20,07,22,13.30
2017,05,20,07,23,13.40
2017,05,20,07,24,13.40
2017,05,20,07,25,13.40
2017,05,20,07,26,13.50
2017,05,20,07,27,13.50
2017,05,20,07,28,13.50
2017,05,20,07,29,13.50
2017,05,20,07,30,13.50
2017,05,20,07,31,13.50
2017,05,20,07,32,13.50
2017,05,20,07,33,13.50
2017,05,20,07,34,13.50
2017,05,20,07,35,13.60
2017,05,20,07,36,13.60
2017,05,20,07,37,13.60
2017,05,20,07,38,13.60
2017,05,20,07,39,13.60
2017,05,20,07,40,13.60
2017,05,20,07,41,13.60
2017,05,20,07,42,13.60
2017,05,20,07,43,13.60
2017,05,20,07,44,13.60
2017,05,20,07,45,13.60
2017,05,20,07,46,13.60
2017,05,20,07,47,13.60
2017,05,20,07,48,13.60
2017,05,20,07,49,13.60
2017,05,20,07,50,13.60
2017,05,20,07,51,13.60
2017,05,20,07,52,13.60
2017,05,20,07,53,13.70
2017,05,20,07,54,13.70
2017,05,20,07,55,13.70
2017,05,20,07,56,13.70
2017,05,20,07,57,13.80
2017,05,20,07,58,13.80
2017,05,20,07,59,13.80
2017,05,20,08,00,13.90
2017,05,20,08,01,13.90
2017,05,20,08,02,14.00
2017,05,20,08,03,14.00
2017,05,20,08,04,14.00
2017,05,20,08,05,14.00
2017,05,20,08,06,14.10
2017,05,20,08,07,14.10
2017,05,20,08,08,14.10
2017,05,20,08,09,14.20
2017,05,20,08,10,14.20
2017,05,20,08,11,14.20
2017,05,20,08,12,14.20
2017,05,20,08,13,14.20
2017,05,20,08,14,14.20
2017,05,20,08,15,14.30
2017,05,20,08,16,14.30
2017,05,20,08,17,14.30
2017,05,20,08,18,14.40
2017,05,20,08,19,14.40
2017,05,20,08,20,14.40
2017,05,20,08,21,14.40
2017,05,20,08,22,14.50
2017,05,20,08,23,14.50
2017,05,20,08,24,14.50
2017,05,20,08,25,14.50
2017,05,20,08,26,14.60
2017,05,20,08,27,14.60
2017,05,20,08,28,14.70
2017,05,20,08,29,14.70
2017,05,20,08,30,14.80
2017,05,20,08,31,14.80
2017,05,20,08,32,14.80
2017,05,20,08,33,14.90
2017,05,20,08,34,14.90
2017,05,20,08,35,15.00
2017,05,20,08,36,15.10
2017,05,20,08,37,15.20
2017,05,20,08,38,15.30
2017,05,20,08,39,15.40
2017,05,20,08,40,15.40
2017,05,20,08,41,15.40
2017,05,20,08,42,15.40
2017,05,20,08,43,15.40
2017,05,20,08,44,15.40
2017,05,20,08,45,15.40
2017,05,20,08,46,15.40
2017,05,20,08,47,15.40
2017,05,20,08,48,15.40
2017,05,20,08,49,15.40
2017,05,20,08,50,15.40
2017,05,20,08,51,15.40
2017,05,20,08,52,15.40
2017,05,20,08,53,15.40
2017,05,20,08,54,15.50
2017,05,20,08,55,15.50
2017,05,20,08,56,15.50
2017,05,20,08,57,15.50
2017,05,20,08,58,15.70
2017,05,20,08,59,15.80
2017,05,20,09,00,15.80
2017,05,20,09,01,15.90
2017,05,20,09,02,15.90
2017,05,20,09,03,16.00
2017,05,20,09,04,16.10
2017,05,20,09,05,16.10
2017,05,20,09,06,16.20
2017,05,20,09,07,16.20
2017,05,20,09,08,16.20
2017,05,20,09,09,16.20
2017,05,20,09,10,16.20
2017,05,20,09,11,16.20
2017,05,20,09,12,16.20
2017,05,20,09,13,16.20
2017,05,20,09,14,16.10
2017,05,20,09,15,16.10
2017,05,20,09,16,16.00
2017,05,20,09,17,15.90
2017,05,20,09,18,15.80
2017,05,20,09,19,15.80
2017,05,20,09,20,15.80
2017,05,20,09,21,15.80
2017,05,20,09,22,15.80
2017,05,20,09,23,15.80
2017,05,20,09,24,15.80
2017,05,20,09,25,15.80
2017,05,20,09,26,15.80
2017,05,20,09,27,15.80
2017,05,20,09,28,15.80
2017,05,20,09,29,15.80
2017,05,20,09,30,15.80
2017,05,20,09,31,15.80
2017,05,20,09,32,15.80
2017,05,20,09,33,15.80
2017,05,20,09,34,15.80
2017,05,20,09,35,15.80
2017,05,20,09,36,15.80
2017,05,20,09,37,15.80
2017,05,20,09,38,15.80
2017,05,20,09,39,15.90
2017,05,20,09,40,16.00
2017,05,20,09,41,16.00
2017,05,20,09,42,15.90
2017,05,20,09,43,15.90
2017,05,20,09,44,15.80
2017,05,20,09,45,15.80
2017,05,20,09,46,15.80
2017,05,20,09,47,15.80
2017,05,20,09,48,15.80
2017,05,20,09,49,15.80
2017,05,20,09,50,15.80
2017,05,20,09,51,15.90
2017,05,20,09,52,15.90
2017,05,20,09,53,16.00
2017,05,20,09,54,16.10
2017,05,20,09,55,16.10
2017,05,20,09,56,16.10
2017,05,20,09,57,16.10
2017,05,20,09,58,16.10
2017,05,20,09,59,16.10
2017,05,20,10,00,16.00
2017,05,20,10,01,15.90
2017,05,20,10,02,16.00
2017,05,20,10,03,16.10
2017,05,20,10,04,16.00
2017,05,20,10,05,15.90
2017,05,20,10,06,15.90
2017,05,20,10,07,16.00
2017,05,20,10,08,16.10
2017,05,20,10,09,16.10
2017,05,20,10,10,16.10
2017,05,20,10,11,16.10
2017,05,20,10,12,16.00
2017,05,20,10,13,15.90
2017,05,20,10,14,15.90
2017,05,20,10,15,15.90
2017,05,20,10,16,15.90
2017,05,20,10,17,16.10
2017,05,20,10,18,16.10
2017,05,20,10,19,16.10
2017,05,20,10,20,16.10
2017,05,20,10,21,16.10
2017,05,20,10,22,16.10
2017,05,20,10,23,16.10
2017,05,20,10,24,16.20
2017,05,20,10,25,16.20
2017,05,20,10,26,16.20
2017,05,20,10,27,16.30
2017,05,20,10,28,16.30
2017,05,20,10,29,16.30
2017,05,20,10,30,16.30
2017,05,20,10,31,16.30
2017,05,20,10,32,16.30
2017,05,20,10,33,16.40
2017,05,20,10,34,16.40
2017,05,20,10,35,16.40
2017,05,20,10,36,16.40
2017,05,20,10,37,16.40
2017,05,20,10,38,16.50
2017,05,20,10,39,16.60
2017,05,20,10,40,16.60
2017,05,20,10,41,16.60
2017,05,20,10,42,16.70
2017,05,20,10,43,16.80
2017,05,20,10,44,16.80
2017,05,20,10,45,16.90
2017,05,20,10,46,16.90
2017,05,20,10,47,16.90
2017,05,20,10,48,16.90
2017,05,20,10,49,16.90
2017,05,20,10,50,16.90
2017,05,20,10,51,16.90
2017,05,20,10,52,17.00
2017,05,20,10,53,17.00
2017,05,20,10,54,17.00
2017,05,20,10,55,17.00
2017,05,20,10,56,16.90
2017,05,20,10,57,16.80
2017,05,20,10,58,16.80
2017,05,20,10,59,16.80
2017,05,20,11,00,16.80
2017,05,20,11,01,16.80
2017,05,20,11,02,16.80
2017,05,20,11,03,16.80
2017,05,20,11,04,16.80
2017,05,20,11,05,16.80
2017,05,20,11,06,16.80
2017,05,20,11,07,16.70
2017,05,20,11,08,16.70
2017,05,20,11,09,16.70
2017,05,20,11,10,16.70
2017,05,20,11,11,16.70
2017,05,20,11,12,16.70
2017,05,20,11,13,16.60
2017,05,20,11,14,16.60
2017,05,20,11,15,16.60
2017,05,20,11,16,16.60
2017,05,20,11,17,16.70
2017,05,20,11,18,16.70
2017,05,20,11,19,16.80
2017,05,20,11,20,16.90
2017,05,20,11,21,16.90
2017,05,20,11,22,16.90
2017,05,20,11,23,16.90
2017,05,20,11,24,16.90
2017,05,20,11,25,16.80
2017,05,20,11,26,16.80
2017,05,20,11,27,16.70
2017,05,20,11,28,16.70
2017,05,20,11,29,16.80
2017,05,20,11,30,16.80
2017,05,20,11,31,16.80
2017,05,20,11,32,16.90
2017,05,20,11,33,16.90
2017,05,20,11,34,16.90
2017,05,20,11,35,16.90
2017,05,20,11,36,16.90
2017,05,20,11,37,16.90
2017,05,20,11,38,17.00
2017,05,20,11,39,17.00
2017,05,20,11,40,17.00
2017,05,20,11,41,17.00
2017,05,20,11,42,17.10
2017,05,20,11,43,17.10
2017,05,20,11,44,17.10
2017,05,20,11,45,17.20
2017,05,20,11,46,17.30
2017,05,20,11,47,17.30
2017,05,20,11,48,17.30
2017,05,20,11,49,17.40
2017,05,20,11,50,17.50
2017,05,20,11,51,17.60
2017,05,20,11,52,17.60
2017,05,20,11,53,17.60
2017,05,20,11,54,17.60
2017,05,20,11,55,17.60
2017,05,20,11,56,17.60
2017,05,20,11,57,17.50
2017,05,20,11,58,17.50
2017,05,20,11,59,17.50
2017,05,20,12,00,17.50
2017,05,20,12,01,17.40
2017,05,20,12,02,17.30
2017,05,20,12,03,17.30
2017,05,20,12,04,17.30
2017,05,20,12,05,17.30
2017,05,20,12,06,17.30
2017,05,20,12,07,17.30
2017,05,20,12,08,17.20
2017,05,20,12,09,17.20
2017,05,20,12,10,17.20
2017,05,20,12,11,17.20
2017,05,20,12,12,17.20
2017,05,20,12,13,17.20
2017,05,20,12,14,17.30
2017,05,20,12,15,17.30
2017,05,20,12,16,17.30
2017,05,20,12,17,17.40
2017,05,20,12,18,17.50
2017,05,20,12,19,17.50
2017,05,20,12,20,17.60
2017,05,20,12,21,17.70
2017,05,20,12,22,17.90
2017,05,20,12,23,17.90
2017,05,20,12,24,17.90
2017,05,20,12,25,17.90
2017,05,20,12,26,17.90
2017,05,20,12,27,17.80
2017,05,20,12,28,17.80
2017,05,20,12,29,17.80
2017,05,20,12,30,17.80
2017,05,20,12,31,17.80
2017,05,20,12,32,17.80
2017,05,20,12,33,17.80
2017,05,20,12,34,17.90
2017,05,20,12,35,17.90
2017,05,20,12,36,17.90
2017,05,20,12,37,17.90
2017,05,20,12,38,17.90
2017,05,20,12,39,17.80
2017,05,20,12,40,17.80
2017,05,20,12,41,17.80
2017,05,20,12,42,17.80
2017,05,20,12,43,17.80
2017,05,20,12,44,17.90
2017,05,20,12,45,18.00
2017,05,20,12,46,18.10
2017,05,20,12,47,18.10
2017,05,20,12,48,18.00
2017,05,20,12,49,17.90
2017,05,20,12,50,17.90
2017,05,20,12,51,17.90
2017,05,20,12,52,17.90
2017,05,20,12,53,18.00
2017,05,20,12,54,18.10
2017,05,20,12,55,18.20
2017,05,20,12,56,18.20
2017,05,20,12,57,18.40
2017,05,20,12,58,18.50
2017,05,20,12,59,18.50
2017,05,20,13,00,18.60
2017,05,20,13,01,18.50
2017,05,20,13,02,18.50
2017,05,20,13,03,18.50
2017,05,20,13,04,18.50
2017,05,20,13,05,18.60
2017,05,20,13,06,18.50
2017,05,20,13,07,18.60
2017,05,20,13,08,18.60
2017,05,20,13,09,18.50
2017,05,20,13,10,18.50
2017,05,20,13,11,18.50
2017,05,20,13,12,18.50
2017,05,20,13,13,18.50
2017,05,20,13,14,18.40
2017,05,20,13,15,18.40
2017,05,20,13,16,18.30
2017,05,20,13,17,18.30
2017,05,20,13,18,18.20
2017,05,20,13,19,18.20
2017,05,20,13,20,18.20
2017,05,20,13,21,18.30
2017,05,20,13,22,18.30
2017,05,20,13,23,18.30
2017,05,20,13,24,18.30
2017,05,20,13,25,18.30
2017,05,20,13,26,18.40
2017,05,20,13,27,18.50
2017,05,20,13,28,18.50
2017,05,20,13,29,18.60
2017,05,20,13,30,18.70
2017,05,20,13,31,18.70
2017,05,20,13,32,18.80
2017,05,20,13,33,19.00
2017,05,20,13,34,19.10
2017,05,20,13,35,19.30
2017,05,20,13,36,19.50
2017,05,20,13,37,19.60
2017,05,20,13,38,19.80
2017,05,20,13,39,19.90
2017,05,20,13,40,19.90
2017,05,20,13,41,20.10
2017,05,20,13,42,20.00
2017,05,20,13,43,19.90
2017,05,20,13,44,19.70
2017,05,20,13,45,19.60
2017,05,20,13,46,19.60
2017,05,20,13,47,19.70
2017,05,20,13,48,19.70
2017,05,20,13,49,19.80
2017,05,20,13,50,19.80
2017,05,20,13,51,19.90
2017,05,20,13,52,19.90
2017,05,20,13,53,20.00
2017,05,20,13,54,20.10
2017,05,20,13,55,20.20
2017,05,20,13,56,20.10
2017,05,20,13,57,20.00
2017,05,20,13,58,19.90
2017,05,20,13,59,19.90
2017,05,20,14,00,19.90
2017,05,20,14,01,19.90
2017,05,20,14,02,19.90
2017,05,20,14,03,19.90
2017,05,20,14,04,19.90
2017,05,20,14,05,19.90
2017,05,20,14,06,19.90
2017,05,20,14,07,19.90
2017,05,20,14,08,19.90
2017,05,20,14,09,20.10
2017,05,20,14,10,20.20
2017,05,20,14,11,20.30
2017,05,20,14,12,20.30
2017,05,20,14,13,20.30
2017,05,20,14,14,20.20
2017,05,20,14,15,20.20
2017,05,20,14,16,20.20
2017,05,20,14,17,20.20
2017,05,20,14,18,20.20
2017,05,20,14,19,20.30
2017,05,20,14,20,20.30
2017,05,20,14,21,20.30
2017,05,20,14,22,20.20
2017,05,20,14,23,20.20
2017,05,20,14,24,20.20
2017,05,20,14,25,20.20
2017,05,20,14,26,20.20
2017,05,20,14,27,20.20
2017,05,20,14,28,20.30
2017,05,20,14,29,20.40
2017,05,20,14,30,20.50
2017,05,20,14,31,20.50
2017,05,20,14,32,20.50
2017,05,20,14,33,20.50
2017,05,20,14,34,20.50
2017,05,20,14,35,20.60
2017,05,20,14,36,20.50
2017,05,20,14,37,20.50
2017,05,20,14,38,20.50
2017,05,20,14,39,20.40
2017,05,20,14,40,20.40
2017,05,20,14,41,20.30
2017,05,20,14,42,20.20
2017,05,20,14,43,20.20
2017,05,20,14,44,20.10
2017,05,20,14,45,20.10
2017,05,20,14,46,20.10
2017,05,20,14,47,20.10
2017,05,20,14,48,20.10
2017,05,20,14,49,20.20
2017,05,20,14,50,20.30
2017,05,20,14,51,20.50
2017,05,20,14,52,20.60
2017,05,20,14,53,20.70
2017,05,20,14,54,20.70
2017,05,20,14,55,20.80
2017,05,20,14,56,20.80
2017,05,20,14,57,20.80
2017,05,20,14,58,20.80
2017,05,20,14,59,20.80
2017,05,20,15,00,20.80
2017,05,20,15,01,20.80
2017,05,20,15,02,20.70
2017,05,20,15,03,20.60
2017,05,20,15,04,20.50
2017,05,20,15,05,20.50
2017,05,20,15,06,20.50
2017,05,20,15,07,20.50
2017,05,20,15,08,20.50
2017,05,20,15,09,20.70
2017,05,20,15,10,20.80
2017,05,20,15,11,20.80
2017,05,20,15,12,20.80
2017,05,20,15,13,20.70
2017,05,20,15,14,20.60
2017,05,20,15,15,20.40
2017,05,20,15,16,20.30
2017,05,20,15,17,20.30
2017,05,20,15,18,20.30
2017,05,20,15,19,20.20
2017,05,20,15,20,20.20
2017,05,20,15,21,20.20
2017,05,20,15,22,20.20
2017,05,20,15,23,20.30
2017,05,20,15,24,20.30
2017,05,20,15,25,20.40
2017,05,20,15,26,20.50
2017,05,20,15,27,20.60
2017,05,20,15,28,20.70
2017,05,20,15,29,20.80
2017,05,20,15,30,20.90
2017,05,20,15,31,20.90
2017,05,20,15,32,20.80
2017,05,20,15,33,20.70
2017,05,20,15,34,20.60
2017,05,20,15,35,20.50
2017,05,20,15,36,20.40
2017,05,20,15,37,20.40
2017,05,20,15,38,20.40
2017,05,20,15,39,20.40
2017,05,20,15,40,20.50
2017,05,20,15,41,20.50
2017,05,20,15,42,20.60
2017,05,20,15,43,20.60
2017,05,20,15,44,20.60
2017,05,20,15,45,20.50
2017,05,20,15,46,20.50
2017,05,20,15,47,20.60
2017,05,20,15,48,20.50
2017,05,20,15,49,20.50
2017,05,20,15,50,20.50
2017,05,20,15,51,20.50
2017,05,20,15,52,20.50
2017,05,20,15,53,20.50
2017,05,20,15,54,20.50
2017,05,20,15,55,20.50
2017,05,20,15,56,20.50
2017,05,20,15,57,20.30
2017,05,20,15,58,20.30
2017,05,20,15,59,20.40
2017,05,20,16,00,20.50
2017,05,20,16,01,20.50
2017,05,20,16,02,20.60
2017,05,20,16,03,20.60
2017,05,20,16,04,20.60
2017,05,20,16,05,20.50
2017,05,20,16,06,20.50
2017,05,20,16,07,20.60
2017,05,20,16,08,20.80
2017,05,20,16,09,20.90
2017,05,20,16,10,21.00
2017,05,20,16,11,20.90
2017,05,20,16,12,20.80
2017,05,20,16,13,20.60
2017,05,20,16,14,20.60
2017,05,20,16,15,20.70
2017,05,20,16,16,20.70
2017,05,20,16,17,20.50
2017,05,20,16,18,20.50
2017,05,20,16,19,20.60
2017,05,20,16,20,20.70
2017,05,20,16,21,20.70
2017,05,20,16,22,20.70
2017,05,20,16,23,20.70
2017,05,20,16,24,20.80
2017,05,20,16,25,20.90
2017,05,20,16,26,20.90
2017,05,20,16,27,21.00
2017,05,20,16,28,21.00
2017,05,20,16,29,21.00
2017,05,20,16,30,21.00
2017,05,20,16,31,21.00
2017,05,20,16,32,20.90
2017,05,20,16,33,20.90
2017,05,20,16,34,20.90
2017,05,20,16,35,20.80
2017,05,20,16,36,20.70
2017,05,20,16,37,20.80
2017,05,20,16,38,20.90
2017,05,20,16,39,21.00
2017,05,20,16,40,21.00
2017,05,20,16,41,21.00
2017,05,20,16,42,21.10
2017,05,20,16,43,21.10
2017,05,20,16,44,21.10
2017,05,20,16,45,21.10
2017,05,20,16,46,21.10
2017,05,20,16,47,21.10
2017,05,20,16,48,21.10
2017,05,20,16,49,21.10
2017,05,20,16,50,21.10
2017,05,20,16,51,21.30
2017,05,20,16,52,21.30
2017,05,20,16,53,21.30
2017,05,20,16,54,21.30
2017,05,20,16,55,21.30
2017,05,20,16,56,21.10
2017,05,20,16,57,21.10
2017,05,20,16,58,21.10
2017,05,20,16,59,21.20
2017,05,20,17,00,21.30
2017,05,20,17,01,21.30
2017,05,20,17,02,21.30
2017,05,20,17,03,21.20
2017,05,20,17,04,21.10
2017,05,20,17,05,21.00
2017,05,20,17,06,20.90
2017,05,20,17,07,20.90
2017,05,20,17,08,20.90
2017,05,20,17,09,20.90
2017,05,20,17,10,21.00
2017,05,20,17,11,21.00
2017,05,20,17,12,21.10
2017,05,20,17,13,21.30
2017,05,20,17,14,21.30
2017,05,20,17,15,21.40
2017,05,20,17,16,21.40
2017,05,20,17,17,21.40
2017,05,20,17,18,21.30
2017,05,20,17,19,21.30
2017,05,20,17,20,21.30
2017,05,20,17,21,21.30
2017,05,20,17,22,21.20
2017,05,20,17,23,21.20
2017,05,20,17,24,21.20
2017,05,20,17,25,21.30
2017,05,20,17,26,21.40
2017,05,20,17,27,21.50